Regional Weather Roundup
Issued by NWS

Home | Current Version | Previous Version | Text Only | Print | Product List | Glossary Off
Versions: 1 2 3 4 5 6 7 8 9 10 11 12 13 14 15 16 17 18 19 20 21 22 23 24 25 26 27 28 29 30 31 32 33 34 35 36 37 38 39 40 41 42 43 44 45 46 47 48 49 50

000
ASUS43 KLOT 152310
RWRIL

ILLINOIS REGIONAL WEATHER ROUNDUP
NATIONAL WEATHER SERVICE CHICAGO/ROMEOVILLE IL
600 PM CDT TUE APR 15 2014

NOTE: "FAIR" INDICATES FEW OR NO CLOUDS BELOW 12,000 FEET WITH NO
SIGNIFICANT WEATHER AND/OR OBSTRUCTIONS TO VISIBILITY.

* THESE STATIONS ARE NOT UNDER NWS QUALITY CONTROL. THEY ALSO MAY NOT
  REPORT WEATHER SUCH AS PRECIPITATION OR FOG.

ILZ001-002-007-009-015-016-024-160000-
NORTHWEST ILLINOIS

CITY           SKY/WX    TMP DP  RH WIND       PRES   REMARKS
MOLINE         SUNNY     42   8  24 W6        30.14R
STERLING*      SUNNY     41  18  38 W16       30.14R
SAVANNA*       MOSUNNY   40  14  33 SW8       30.13S
$$

ILZ003-004-008-010-011-017-018-160000-
NORTH CENTRAL ILLINOIS

CITY           SKY/WX    TMP DP  RH WIND       PRES   REMARKS
ROCKFORD       PTSUNNY   38  15  39 SW7       30.14S WCI  33
FREEPORT*      MOSUNNY   39  15  37 W6        30.14R WCI  34
ROCHELLE*      PTSUNNY   38  19  48 W3        30.14R
DE KALB*       CLOUDY    34  19  54 W7        30.14S WCI  28
PERU*          MOSUNNY   40  17  39 CALM      30.15R
$$

ILZ005-006-012>014-019>023-160000-
NORTHEAST ILLINOIS

CITY           SKY/WX    TMP DP  RH WIND       PRES   REMARKS
CHICAGO-OHARE  PTSUNNY   38  16  40 W12       30.14R WCI  30
CHICAGO-MIDWAY PTSUNNY   36  18  48 W9        30.15R WCI  29
AURORA         CLOUDY    37  19  48 W7        30.15R WCI  32
LANSING*       PTSUNNY   35  15  44 CALM      30.16R
WAUKEGAN       CLOUDY    30  18  60 E9        30.14R WCI  22
DUPAGE AIRPORT CLOUDY    37  18  46 NW9G25    30.14R WCI  30
KANKAKEE*      PTSUNNY   37  20  51 W8        30.17S WCI  30
WHEELING       CLOUDY    38  20  48 NW7       30.16R WCI  33
MORRIS*        PTSUNNY   38  17  42 W7        30.16R WCI  32
ROMEOVILLE*    CLOUDY    36  20  52 W9        30.16R WCI  29
NORTHERLY ISL    N/A     32  21  64 E12         N/A  WCI  23
$$

LMZ740>746-160000-
SOUTHERN LAKE MICHIGAN

STATION/POSITION SKY/WX   TEMP    WIND        PRES    VSBY  WAVE
                          AIR SEA DIR/SP/G                  HT/PER
                          (F)     (DEG/KT/KT) (MB)    (MI)  (FT/S)
WAUKEGAN HARBOR            31     150/ 14/ 16 1022.4R
HARRISON CRIB              30     110/ 15/ 17   N/A
BURNHAM HARBOR             32     120/ 12/ 13   N/A
CALUMET HARBOR             32      90/ 10/ 13 1022.1S
MICHIGAN CITY              30      30/  6/  8   N/A
$$

ILZ025>027-034>036-040-047-049-050-058-095>099-160000-
WEST-CENTRAL ILLINOIS

CITY           SKY/WX    TMP DP  RH WIND       PRES   REMARKS
QUINCY         SUNNY     47  17  30 W9        30.14S
GALESBURG*     SUNNY     41  19  40 W8        30.14S
MACOMB*        SUNNY     43  22  43 W7        30.17S
JACKSONVILLE*  SUNNY     46  19  34 W7        30.17S
PITTSFIELD*    SUNNY     47  18  31 W7        30.16S
$$

ILZ028>032-037-038-041>044-048-051>054-059>061-160000-
CENTRAL ILLINOIS

CITY           SKY/WX    TMP DP  RH WIND       PRES   REMARKS
PONTIAC        MOSUNNY   39  19  45 W9        30.17R WCI  33
BLOOMINGTON    SUNNY     39  14  36 W7        30.17R WCI  34
DECATUR        MOSUNNY   43  17  35 NW12      30.17S
PEORIA         SUNNY     43  15  32 W8        30.16R
LACON*         MOSUNNY   41  15  34 NW9       30.15R
LINCOLN*       MOSUNNY   44  17  34 CALM      30.18R
SPRINGFIELD    SUNNY     46  17  31 W15G21    30.17S
TAYLORVILLE    PTSUNNY   43  21  42 W7        30.18S
$$

ILZ033-039-045-046-055>057-062-063-160000-
EAST-CENTRAL ILLINOIS

CITY           SKY/WX    TMP DP  RH WIND       PRES   REMARKS
CHAMPAIGN      PTSUNNY   41  20  43 W13       30.17R
RANTOUL*       MOSUNNY   40  21  45 CALM      30.18R
MATTOON        PTSUNNY   42  20  41 W9        30.18R
PARIS*         CLOUDY    40  22  49 CALM      30.19F
$$

ILZ079-100>102-160000-
SOUTHWEST ILLINOIS

CITY           SKY/WX    TMP DP  RH WIND       PRES   REMARKS
ALTON          MOSUNNY   46  14  27 W6        30.18S
BELLEVILLE     SUNNY     47  17  30 CALM      30.18S
CAHOKIA*       SUNNY     48  21  34 VRB5      30.18F
SPARTA*        SUNNY     45  21  39 NW6       30.20F
$$

ILZ064>066-069>071-074>076-080>082-084>086-088>090-092>094-160000-
SOUTH-CENTRAL ILLINOIS

CITY           SKY/WX    TMP DP  RH WIND       PRES   REMARKS
CARBONDALE     SUNNY     47  21  35 N8        30.20F
CAIRO*         SUNNY     51  21  30 NE9       30.20S
MARION         MOSUNNY   46  23  39 N12       30.21F
MT. VERNON     SUNNY     45  18  33 N7        30.21S
CENTRALIA*       N/A     44  20  38 W7        30.20S
SALEM*         MOSUNNY   45  24  44 NW9       30.20S
METROPOLIS*    SUNNY     47  15  28 N7        30.19F
$$

ILZ067-068-072-073-078-083-087-091-160000-
SOUTHEAST ILLINOIS

CITY           SKY/WX    TMP DP  RH WIND       PRES   REMARKS
FLORA*         SUNNY     43  20  39 N8        30.21S
FAIRFIELD*     SUNNY     45  21  39 N6        30.21S
HARRISBURG*    SUNNY     45  20  36 N9        30.22S
ROBINSON*      PTSUNNY   44  25  47 N3        30.21S
CARMI*         PTSUNNY   45  26  46 W7        30.21R
$$

ABBREVIATIONS USED IN REMARKS
   TC - TEMPERATURE IN CELSIUS
  WCI - WIND CHILL INDEX
   HX - HEAT INDEX
  VSB - VISIBILITY
$$




USA.gov is the U.S. government's official web portal to all federal, state and local government web resources and services.